Location: Unspecified
(52.4292°N, 19.3359°E)
Time: 20:18:33
(UTC+02:00)

Tiros 1 - Pass Details

Date: 20 May 2024
Orbit: 624 x 657 km, 48.4° (Epoch: 15 June)

Event Time Altitude Azimuth Distance (km) Brightness Sun altitude
Rises 19:51:39 0° 273° (W) 2,976 12.0 5.5°
Drops below altitude 10° 19:56:55 10° 224° (SW) 2,050 10.0 4.8°
Maximum altitude 19:56:56 10° 224° (SW) 2,050 10.0 4.8°
Sets 20:02:10 0° 175° (S) 2,941 10.2 4.1°
